Location: Chaumontel
(49.1247°N, 2.4324°E)
Time: 06:31:01
(UTC+00:00)

COSMOS 2428 - Pass Details

Date: 11 August 2024
Orbit: 842 x 857 km, 70.9° (Epoch: 08 September)

Event Time Altitude Azimuth Distance (km) Brightness Sun altitude
Exits shadow 00:17:44 13° 108° (ESE) 2,242 4.8 -25.5°
Maximum altitude 00:18:44 14° 96° (E) 2,208 4.8 -25.5°
Drops below altitude 10° 00:21:29 10° 67° (ENE) 2,481 5.5 -25.4°
Sets 00:25:11 0° 43° (NE) 3,427 6.7 -25.4°
